DELTA 1 DEB, 29183

Orbit data source: Space-Track

DELTA 1 DEB, 29183 is space debris in LEO originally from a launch on Thu, 11 Jan 1968 UTC launched from the Air Force Western Test Range (AFWTR). Debris objects in space refer to the collection of defunct objects orbiting the Earth. Examples of debris include non-operational satellites, rocket bodies, and fragments generated from explosions, collisions, or faulty payload assembly.

Loading next visibility...
Identifier
29183, 1968-002G
Orbit
LEO
Country
Flag of USUS
Related business
Manufacturer
Unknown
Mission
Spacecraft
Bus & Motor
Unknown
Mass
Unknown
Launch date (UTC)
1968-01-11 (58 years ago)
Launch vehicle
Unknown
Launch site
Air Force Western Test Range (AFWTR)
Object type
Payload
Rocket body
Debris
Shape & HBR
Unknown
Radar Cross Section
Small (<0.1 m²)

Expand to show TLE details & history
Last TLE update: 3 weeks ago

TLE from 3 weeks ago
0 DELTA 1 DEB
1 29183U 68002G   25223.24237700  .00001505  00000-0  26055-2 0  9999
2 29183 105.7980 237.2766 0235807 136.8017 291.8582 13.37055843 50086
Epoch: 2025-08-11T05:49Z
TLE epoch observation values (Epoch: 2025-08-11T05:49:01.372Z)
Latitude
61.72893°
Longitude
158.5087°
Altitude
1,068.273 km
Speed
7.354 km/s
True Right ascension
13h 42m 51s
True Declination
61° 35' 28"
Sunlit
Object was in daylight at epoch
Visualization orbit readout
Latitude
Unknown
Longitude
Unknown
Altitude
Unknown
Speed
Unknown
Apparent Right ascension
Unknown
Apparent Declination
Unknown
Sunlit
N/A
Visualization observer readout
Local Sidereal Time
17:54:47
Azimuth
Unknown
Elevation
Unknown
Doppler factor
Unknown
Orbital elements
Apogee altitude
1,294.75 km
Perigee altitude
941.222 km
Semi-major axis
7,496.123 km
Eccentricity
0.02358
Inclination
105.798°
RAAN
237.2766°
Arg. of periapsis
136.8017°
True anomaly
289.32333°
Mean anomaly
291.8582°
Eccentric anomaly
290.59346°
Mean motion
3.34417 °/min
Orbital period
107.65 mins
BSTAR
0.0026055
Loading maneuver chart data...
Computing Atmospheric mass density...
Loading historical data...
Loading historical data...
Loading historical data...
Loading historical data...
Loading historical data...
Loading historical data...
Loading historical data...

Documentation

Showing up to 5 results
|